Weather in Karpilovka

Ukraine / Rovno District     51°09′21″N   27°12′05″E
temp.,
°C
wind,
m/s
gust,
m/s
humid.,
%
clouds,
%
prec.,
mm/h
press.,
hPa
HPBL,
m
12 may, wed
wed1200:00+12ese37845 0.0 1018124
03:00+11e311950 0.0 1017242
06:00+10e4119864 0.0 1017391
09:00+12ese69680 0.0 1017882
12:00+15ese79504 0.0 10171369
15:00+15ese79505 0.0 10161493
18:00+13ese695799 0.0 10151586
21:00+9ese22765 0.0 101422
13 may, thu
thu1300:00+7ese2590100 0.0 101382
03:00+7se2593100 0.0 1011114
06:00+7ese259298 0.0 1010146
09:00+11se467291 0.0 1009736
12:00+15se6754100 0.0 10081733
15:00+13sse61066100 0.0 1007906
18:00+11se51278100 0.0 1007895
21:00+11se5148499 0.0 1006697
14 may, fri
fri1400:00+11sse61292100 0.0 1006555
03:00+11se51090100 0.0 1005644
06:00+11sse4994100 0.8 1006409
09:00+12sse4691100 0.9 1006385
12:00+17sse3468100 0.1 1006973
15:00+18ssw3461100 1.6 10061013
18:00+16wsw4678100 2.0 1006414
21:00+12sw3790100 2.3 1008209
15 may, sat
sat1500:00+9wsw3795100 0.0 1009179
03:00+8wsw3897100 0.0 1010188
06:00+8wsw31096100 0.0 1010356
09:00+11sw4885100 0.0 1010382
12:00+16sw596296 0.1 10111624
15:00+18w5950100 0.3 10102011
18:00+18wnw365699 0.0 10101599
21:00+12ne22855 0.0 101212
16 may, sun
sun1600:00+10ese229159 0.0 101223
03:00+9ese229192 0.0 101311
06:00+11ese258596 0.0 1013114
09:00+16ese3568100 0.0 1013384
12:00+20ese5750100 0.0 10121562
15:00+20se6859100 0.1 10111394
18:00+20se586491 0.1 10111297
21:00+15ese41188100 0.5 1011284